Flag for France Weather past 2 weeks in Paris, France

Now
72 °F

Passing clouds.


Feels Like: 77 °F
Forecast: 56 / 87 °F
Wind: 8 mph from West

Location: Villacoublay

Current Time: Aug 4, 2015 at 8:42:06 PM

Latest Report: Aug 4, 2015 at 8:00 PM


Visibility: N/A

Pressure: 30.04 "Hg

Humidity: 36%

Dew point: 43 °F

Location of ParisLocation

Historic Weather in Paris — Graph

°F

Paris temperature yesterday

Maximum temperature yesterday: 91 °F (at 5:30 PM)
Minimum temperature yesterday: 64 °F (at 6:00 AM)
Average temperature yesterday: 79 °F

Past Weeks' High & Low Weather Summary

 TemperatureHumidityPressure
High91 °F (Aug 3, 5:30 PM)100% (Jul 27, 5:00 AM)30.12 "Hg (Jul 27, 5:00 AM)
Low50 °F (Jul 30, 4:00 AM)21% (Aug 3, 3:30 PM)29.62 "Hg (Jul 25, 12:00 AM)
Average66 °F60%29.95 "Hg
* Reported Jul 20 7:00 PM — Aug 4 7:30 PM, Paris, Weather by CustomWeather, © 2015

Note: Actual official high and low records may vary slightly from our data, if they occured in-between our weather recording intervals... More about our weather records

Advertising

Paris weather history for previous 24 hours

 ConditionsComfort  
Time TempWeatherWind HumidityBarometerVisibility
7:30 PM
Tue, Aug 4
75 °FPassing clouds.7 mph34%30.04 "HgN/A
7:00 PM73 °FSunny.N/A36%30.04 "Hg10 mi
6:30 PM73 °FSunny.N/A36%30.04 "Hg10 mi
6:00 PM75 °FSunny.N/A34%30.04 "Hg10 mi
5:30 PM75 °FPassing clouds.9 mph34%30.04 "HgN/A
5:00 PM75 °FPassing clouds.13 mph34%30.04 "HgN/A
4:30 PM75 °FPassing clouds.12 mph36%30.04 "HgN/A
4:00 PM75 °FPassing clouds.10 mph39%30.04 "HgN/A
3:30 PM73 °FPassing clouds.12 mph41%30.04 "HgN/A
3:00 PM73 °FPassing clouds.9 mph41%30.04 "HgN/A
2:30 PM72 °FSunny.N/A44%30.04 "Hg10 mi
2:00 PM72 °FPartly sunny.8 mph47%30.04 "HgN/A
1:30 PM70 °FOvercast.N/A50%30.04 "HgN/A
1:00 PM68 °FPartly sunny.12 mph53%30.04 "HgN/A
12:30 PM70 °FBroken clouds.10 mph50%30.04 "HgN/A
12:00 PM68 °FBroken clouds.9 mph56%30.04 "HgN/A
11:30 AM66 °FBroken clouds.9 mph60%30.04 "HgN/A
11:00 AM64 °FPartly sunny.8 mph68%30.04 "HgN/A
10:30 AM64 °FMostly cloudy.8 mph73%30.01 "HgN/A
10:00 AM63 °FCloudy.9 mph83%30.01 "HgN/A
9:30 AM61 °FBroken clouds.9 mph88%30.01 "HgN/A
9:00 AM61 °FMostly cloudy.10 mph88%29.98 "HgN/A
8:30 AM61 °FMore clouds than sun.9 mph88%29.98 "HgN/A
8:00 AM61 °FMostly cloudy.14 mph88%29.98 "HgN/A
7:30 AM61 °FMostly cloudy.16 mph94%29.95 "HgN/A
7:00 AM63 °FMostly cloudy.N/A94%29.95 "HgN/A
6:30 AM64 °FPassing clouds.9 mph94%29.95 "HgN/A
6:00 AM64 °FMostly cloudy.8 mph94%29.92 "HgN/A
5:00 AM66 °FClear.12 mph83%29.92 "Hg10 mi
4:30 AM68 °FMild.8 mph78%29.89 "HgN/A
4:00 AM68 °FMild.8 mph78%29.92 "HgN/A
3:30 AM70 °FMild.3 mph78%29.89 "HgN/A
3:00 AM70 °FThunderstorms. Overcast.3 mph78%29.89 "HgN/A
2:30 AM72 °FThundershowers. Overcast.5 mph73%29.89 "HgN/A
2:00 AM73 °FMild.7 mph61%29.89 "HgN/A
1:30 AM75 °FClear.8 mph57%29.86 "Hg10 mi
1:00 AM75 °FPassing clouds.8 mph57%29.86 "HgN/A
12:30 AM77 °FWarm.8 mph54%29.89 "HgN/A
12:00 AM79 °FWarm.8 mph45%29.89 "HgN/A
11:30 PM
Mon, Aug 3
79 °FWarm.N/A45%29.89 "HgN/A
11:00 PM81 °FWarm.9 mph42%29.89 "HgN/A
10:30 PM81 °FClear.9 mph39%29.89 "Hg10 mi
10:00 PM82 °FSunny.N/A37%29.89 "Hg10 mi
9:30 PM84 °FSunny.7 mph31%29.86 "Hg10 mi
9:00 PM86 °FSunny.N/A29%29.86 "Hg10 mi
8:30 PM86 °FSunny.7 mph31%29.86 "Hg10 mi
8:00 PM88 °FSunny.6 mph29%29.86 "Hg10 mi
Weather by CustomWeather, © 2015

See weather overviewHow to use our weather pages